Location: Acton
(51.4942°N, 0.2232°W)
Time: 13:34:56
(UTC+00:00)

Okean 1-7 Rocket - Pass Details

Date: 17 January 2021
Orbit: 615 x 650 km, 82.5° (Epoch: 28 February)

Event Time Altitude Azimuth Distance (km) Brightness Sun altitude
Exits shadow 03:54:10 - 21° (NNE) 2,351 6.9 -37.2°
Reaches altitude 10° 03:55:54 10° 40° (NE) 2,062 6.7 -36.9°
Maximum altitude 03:57:10 11° 56° (ENE) 1,991 6.8 -36.7°
Drops below altitude 10° 03:58:27 10° 73° (ENE) 2,054 7.0 -36.5°
Sets 04:02:31 0° 109° (ESE) 2,950 7.8 -35.9°
